Portada
METAR-TAF:

METAR-TAF

Aeropuertos :

Kirksville Regional Airport

Kirksville, Misuri, Estados Unidos

latitud: 40-05-50N, longitud: 092-32-36W, altitud: 294 m

Observación

El informe se hizo hace 58 minutos, a las 09:55 UTC
Viento calma
Temperatura -6°C
Humedad 79%
Presión 1025 hPa
Visibilidad: 16.1 km
Cielo despejado

METAR: KIRK 030955Z AUTO 00000KT 10SM CLR M06/M09 A3026 RMK AO2 SLP259 T10611089

Hora: 04:53 (10:53 UTC)


TAF: falta

Observaciones y pronósticos meteorológicos de más de 4000 aeropuertos (mensajes METAR y TAF).

Los puntos amarillos y rojos representan las estaciones disponibles.

Ponga el ratón en el punto deseado para ver el nombre de la estación.

Haga clic para ver las observaciones y los pronósticos meteorológicos.

Para cambiar el mapa : haga clic en los botones verdes con una cruz de color negro para hacer un zoom, en el botón verde con un guión para alejar o en las flechas verdes para mapas adyacentes.


METAR-TAF: